Regional Weather Roundup
Issued by NWS

Home | Current Version | Previous Version | Graphics & Text | Print | Product List | Glossary On
Versions: 1 2 3 4 5 6 7 8 9 10 11 12 13 14 15 16 17 18 19 20 21 22 23 24 25 26 27
000
ASUS45 KBOU 161707
RWRCO

WEATHER ROUNDUP FOR COLORADO
NATIONAL WEATHER SERVICE DENVER/BOULDER CO
1100 AM MDT MON OCT 16 2017

NOTE: "FAIR" INDICATES FEW OR NO CLOUDS BELOW 12000 FEET WITH NO
SIGNIFICANT WEATHER AND/OR OBSTRUCTIONS TO VISIBILITY.

COZ001>005-013-030-031-161800-
...NORTHWEST COLORADO...

CITY           SKY/WX    TMP DP  RH WIND       PRES   REMARKS
CRAIG          FAIR      55  16  21 NE8       30.46F
HAYDEN         FAIR      49  19  30 E6        30.48F
MEEKER         FAIR      51  14  22 CALM      30.46F
RABBIT EARS PA FAIR      43   3  19 W6        30.60R
STEAMBOAT SPGS FAIR      44  21  40 CALM      30.48F
WALDEN         FAIR      54   0  11 SW13      30.48F
$$

COZ006>008-011-161800-
...WEST CENTRAL VALLEYS...

CITY           SKY/WX    TMP DP  RH WIND       PRES   REMARKS
GRAND JUNCTION FAIR      53  16  23 S6        30.48F
MONTROSE       FAIR      50  11  20 NW5       30.52F
EAGLE          FAIR      41  17  38 CALM      30.54F
RIFLE          FAIR      46  18  32 CALM      30.50F
DELTA          FAIR      48  11  22 CALM      30.51F
NUCLA          FAIR      50   3  14 CALM      30.54F
$$

COZ017>023-064>068-161800-
...SOUTHWEST COLORADO...

CITY           SKY/WX    TMP DP  RH WIND       PRES   REMARKS
DURANGO        FAIR      54  18  24 E3        30.53F
CORTEZ         FAIR      59   6  12 CALM      30.49F
PAGOSA SPRINGS FAIR      55  14  19 CALM      30.57F
TELLURIDE      FAIR      57  -8   7 CALM      30.62
WOLF CREEK PAS FAIR      45  -4  13 S7        30.79S
$$

COZ009-010-012-014-032>034-037-058>063-161800-
...CENTRAL COLORADO...

CITY           SKY/WX    TMP DP  RH WIND       PRES   REMARKS
ASPEN          FAIR      53   8  16 N6        30.50F
BUENA VISTA    FAIR      51   4  15 CALM      30.51F
COPPER MTN     FAIR      45 -15   8 W5        30.69S
BERTHOUD PASS  FAIR      34  27  75 NW36G49   30.64R WCI  19
COTTONWOOD PAS FAIR      55  -2   9 S7        30.59S
GUNNISON       FAIR      38   9  30 CALM      30.61F
KREMMLING      FAIR      43  21  42 CALM      30.54F
LEADVILLE      FAIR      53 -11   7 N10       30.58S
MONARCH PASS   FAIR      37  -8  14 W32       30.80S
SALIDA         NOT AVBL
SUNLIGHT       FAIR      46  -2  13 SW12G18   30.68F
WILKERSON PASS FAIR      41 -13   9 SW13G18   30.67S
$$

COZ069>075-161800-
...SAN LUIS VALLEY/SANGRE DE CRISTO MOUNTAINS...

CITY           SKY/WX    TMP DP  RH WIND       PRES   REMARKS
ALAMOSA        FAIR      49  15  25 CALM      30.56F
DEL NORTE      FAIR      50   9  19 E3        30.57F
LA VETA PASS   FAIR      48  10  21 SW29G37   30.72R
SAGUACHE       FAIR      50  10  20 CALM      30.57F
$$

COZ035-036-038>040-161800-
...NORTHERN COLORADO FRONT RANGE...

CITY           SKY/WX    TMP DP  RH WIND       PRES   REMARKS
DENVER INTL AP FAIR      69  16  13 SW15      30.30F
DMNS CITY PARK   N/A     67  17  15 SE7       30.31S
AURORA         MOSUNNY   68  16  13 SW13      30.32F
FRONT RANGE AP PTSUNNY   72  18  13 S12       30.31F
ERIE MUNI ARPT FAIR      70  15  12 CALM      30.33F
BOULDER MUN AP FAIR      70  19  14 W7        30.28F
CENTENNIAL     PTSUNNY   66  14  13 SW12      30.33F
BROOMFIELD     PTSUNNY   73  10   9 W18G25    30.31F
FORT COLLINS   FAIR      56  32  40 CALM      30.29F
LONGMONT       FAIR      63  31  30 E3        30.29F
$$

COZ041-046-047-076>085-087-088-161800-
...PIKES PEAK/PALMER DIVIDE AND SOUTHERN FOOTHILLS...

CITY           SKY/WX    TMP DP  RH WIND       PRES   REMARKS
COLO. SPRINGS  FAIR      67  27  22 VRB6      30.38F
A. F. ACADEMY  PTSUNNY   72   1   6 W14       30.38S
SCHRIEVER AFB  FAIR      67  10  11 CALM      30.37F
CHEYENNE MTN   PTSUNNY   60  26  26 E3        30.36S
ELLICOTT       FAIR     N/A N/A N/A W3        30.36F
FALCON         FAIR      68  -3   6 W16G25    30.41F
FORT CARSON    SUNNY     60  19  20 CALM      30.36S
LIMON          FAIR      68  24  19 S5        30.32F
MONUMENT HILL  FAIR      64   7  10 W12       30.42S
CANON CITY     SUNNY     61  19  20 W15       30.35F
WALSENBURG     FAIR      73  16  11 W15G22    30.38F
TRINIDAD       FAIR      65  23  20 W6        30.38F
$$

COZ042>045-048>051-090-091-161800-
...NORTHEAST COLORADO...

CITY           SKY/WX    TMP DP  RH WIND       PRES   REMARKS
GREELEY ARPT   FAIR      49  33  54 CALM      30.29F
AKRON          FAIR      60  25  26 W5        30.27F
BURLINGTON     FAIR      71  23  16 S15G26    30.27F
WRAY           FAIR      68  30  24 MISG      30.25F
YUMA           NOT AVBL
STERLING       FAIR      55  34  44 SW8       30.24F
HOLYOKE        FAIR      66  32  28 SW5       30.23F
FORT MORGAN    FAIR      57  27  31 W10       30.28S
$$

COZ086-089-092>099-161800-
...SOUTHEAST COLORADO...

CITY           SKY/WX    TMP DP  RH WIND       PRES   REMARKS
PUEBLO         FAIR      61  27  27 SW7       30.33F
LA JUNTA       FAIR      61  31  32 W6        30.32F
LAMAR          FAIR      61  29  29 W9        30.31F
SPRINGFIELD      N/A     64  34  32 S9        30.32F
$$




USA.gov is the U.S. government's official web portal to all federal, state and local government web resources and services.